Alexandria, LA

2:03 PM CST on January 20, 2017 (GMT -0600)
Alexandria

Weather History for KAEX - January, 2008

Change the Weather History Date:

Monday, January 14, 2008

  Actual Average Record
Temperature  
Mean Temperature 47 °F 49 °F  
Max Temperature 62 °F 59 °F 81 °F (1947)
Min Temperature 32 °F 39 °F 16 °F (1912)
Degree Days  
Heating Degree Days 18 16  
Month to date heating degree days 185 224  
Since 1 July heating degree days 772 1013  
Moisture  
Dew Point 32 °F    
Average Humidity 65    
Maximum Humidity 85    
Minimum Humidity 30    
Precipitation  
Precipitation 0.00 in 0.14 in 1.43 in (1977)
Month to date precipitation 0.83 2.11  
Year to date precipitation 0.83 2.11  
Snow  
Snow 0.00 in - T in (1982)
Month to date snowfall 0.0  
Since 1 July snowfall 0.0  
Snow Depth 0.00 in    
Sea Level Pressure  
Sea Level Pressure 30.33 in    
Wind  
Wind Speed 2 mph (NW)    
Max Wind Speed 9 mph    
Max Gust Speed -    
Visibility 10 miles    
Events      
T = Trace of Precipitation, MM = Missing Value Source: NWS Daily Summary

Daily Weather History Graph

Daily Weather History Graph

Search for Another Location

Airport or City:

Trip Planner

Search our weather history database for the weather conditions in past years. The results will help you decide how hot, cold, wet, or windy it might be!

Date:

Astronomy

Jan. 14, 2008 Rise Set
Actual Time 7:09 AM CST 5:28 PM CST
Civil Twilight 6:43 AM CST 5:54 PM CST
Nautical Twilight 6:13 AM CST 6:24 PM CST
Astronomical Twilight 5:44 AM CST 6:54 PM CST
Moon 10:49 AM CST (1/14) 11:55 PM CST (1/14)
Length of Visible Light 11h 11m
Length of Day
10h 18m
Waxing Crescent, 38% of the Moon is Illuminated
Jan 14
Waxing Crescent
Jan 15
First Quarter
Jan 22
Full
Jan 29
Last Quarter
Feb 6
New

Hourly Weather History & Observations

Time (CST) Temp. Windchill Dew Point Humidity Pressure Visibility Wind Dir Wind Speed Gust Speed Precip Events Conditions
12:53 AM 37.9 °F - 30.9 °F 76% 30.31 in 10.0 mi Calm Calm - N/A   Clear
1:53 AM 37.0 °F - 32.0 °F 82% 30.32 in 10.0 mi Calm Calm - N/A   Clear
2:53 AM 35.1 °F - 30.9 °F 85% 30.32 in 10.0 mi Calm Calm - N/A   Clear
3:53 AM 36.0 °F 33.3 °F 30.9 °F 82% 30.33 in 10.0 mi NNW 3.5 mph - N/A   Clear
4:53 AM 34.0 °F 29.8 °F 28.9 °F 82% 30.33 in 10.0 mi NNW 4.6 mph - N/A   Clear
5:53 AM 34.0 °F 31.0 °F 30.0 °F 85% 30.36 in 10.0 mi WSW 3.5 mph - N/A   Clear
6:53 AM 32.0 °F - 28.0 °F 85% 30.36 in 10.0 mi Calm Calm - N/A   Clear
7:53 AM 35.1 °F - 30.9 °F 85% 30.38 in 10.0 mi Calm Calm - N/A   Clear
8:53 AM 42.1 °F - 35.1 °F 76% 30.39 in 10.0 mi Calm Calm - N/A   Clear
9:53 AM 46.9 °F - 34.0 °F 61% 30.42 in 10.0 mi Calm Calm - N/A   Clear
10:53 AM 51.1 °F - 33.1 °F 50% 30.41 in 10.0 mi Calm Calm - N/A   Clear
1:53 PM 61.0 °F - 32.0 °F 34% 30.31 in 10.0 mi Variable 5.8 mph - N/A   Clear
2:53 PM 62.1 °F - 30.0 °F 30% 30.30 in 10.0 mi North 9.2 mph - N/A   Clear
3:53 PM 61.0 °F - 30.0 °F 31% 30.29 in 10.0 mi West 8.1 mph - N/A   Clear
4:53 PM 57.9 °F - 30.9 °F 36% 30.29 in 10.0 mi NW 5.8 mph - N/A   Clear
5:53 PM 55.9 °F - 30.9 °F 39% 30.30 in 10.0 mi Calm Calm - N/A   Clear
7:53 PM 48.9 °F - 39.0 °F 69% 30.31 in 10.0 mi Calm Calm - N/A   Clear
8:53 PM 46.9 °F - 35.1 °F 63% 30.31 in 10.0 mi Calm Calm - N/A   Clear
9:53 PM 44.1 °F - 37.0 °F 76% 30.31 in 10.0 mi Calm Calm - N/A   Clear
11:53 PM 42.1 °F - 37.0 °F 82% 30.29 in 10.0 mi Calm Calm - N/A   Clear